OneWeb SL0006

operational
NORAD ID: 44061 Int'l Des: 2019-010 Owner: ONEWEB Country: UK Constellation: oneweb
LEOCIRCULARPOLARONEWEB_TYPE

About OneWeb SL0006

Description loading...

Live Position

Loading 3D Globe...

Upcoming Passes

Altitude History

Altitude vs Time

uPlot chart will show altitude changes over time

Two-Line Element Set

1 44061U 19010E 25257.55912641 -.00000050 00000-0 -16704-3 0 9998
2 44061 87.9036 314.1705 0001622 97.0974 263.0341 13.15548535315185
Epoch: Sep 14, 2025 • Age: 20 hours

Current Status

Altitude 1231.2 km
Velocity 7.24 km/s
Sub-Earth Point -80.64°S, 17.28°E
Launch Date Apr 25, 2021
Age 4.3 years
Type internet

Technical Details

Classification Payload
Mass 148.00 kg
Dry Mass 140.00 kg
Total Mass 148.00 kg
Length 1.30 m
Diameter 1.00 m
Span 5.00 m
Shape Trapezoid+2 pan
Manufacturer ADST
Bus Type ARROW
Phase Status In Orbit
Owner/State ONEWEB/UK

Large Constellations

Loading constellations...